Regional Weather Roundup
Issued by NWS

Home | Current Version | Previous Version | Text Only | Print | Product List | Glossary On
Versions: 1 2 3 4 5 6 7 8 9 10 11 12 13 14 15 16 17 18 19 20 21 22 23 24 25 26 27 28 29 30 31 32 33 34 35 36 37 38 39 40 41 42 43 44 45 46 47 48 49 50
000
ASUS44 KFWD 121715
RWRTX
NORTH TEXAS HOURLY WEATHER ROUNDUP
NATIONAL WEATHER SERVICE FORT WORTH TX
1200 PM CDT SAT JUL 12 2014

NOTE: "FAIR" INDICATES FEW OR NO CLOUDS BELOW 12,000 FEET WITH NO
SIGNIFICANT WEATHER AND/OR OBSTRUCTIONS TO VISIBILITY.

TXZ118-119-121800-
DALLAS/FORT WORTH METROPLEX

CITY           SKY/WX    TMP DP  RH WIND       PRES   REMARKS
DFW AIRPORT    SUNNY     93  54  26 S14       30.15F HX  91
DALLAS LOVE    SUNNY     92  56  29 SW8       30.15F HX  90
FTW MEACHAM    SUNNY     93  56  28 S12       30.15F HX  91
DAL-EXECUTIVE  SUNNY     92  59  33 S9        30.16F HX  91
FTW-ALLIANCE   MOSUNNY   92  56  29 S8G20     30.15F HX  90
FTW-NAS-JRB    SUNNY     94  54  25 S12       30.20S HX  92
FTW-SPINKS     SUNNY     93  55  27 SW10      30.17F HX  91
ARLINGTON      SUNNY     92  51  24 S12       30.16F
GRAND PRAIRIE  SUNNY     91  55  29 S12       30.17F
ADDISON        SUNNY     91  52  25 SW9       30.16F
MESQUITE       SUNNY     91  55  29 S9        30.16F
LANCASTER      SUNNY     90  60  36 S5        30.17F HX  90
$$

TXZ091>094-102>105-117-120-121-131>134-121800-
NORTH CENTRAL TEXAS

CITY           SKY/WX    TMP DP  RH WIND       PRES   REMARKS
SHRMAN/DENISON SUNNY     93  49  22 SW10      30.17S HX  90
GAINESVILLE    SUNNY     92  52  25 SW12      30.17F
BOWIE          SUNNY     89  61  39 S10       30.17S
BRIDGEPORT     SUNNY     90  54  29 S8        30.18S
DECATUR        SUNNY     90  52  27 S10       30.17S
DENTON         SUNNY     92  56  29 SW10      30.15F HX  90
MCKINNEY       SUNNY     93  54  26 S10       30.15F HX  91
GREENVILLE     SUNNY     91  59  33 SW9       30.17S HX  90
ROCKWALL       SUNNY     90  60  36 SW7       30.16S HX  90
TERRELL        SUNNY     92  61  35 S10       30.17S HX  92
WAXAHACHIE     SUNNY     90  57  33 S8        30.18F
CLEBURNE       SUNNY     90  61  37 VRB7      30.19F
GRANBURY       SUNNY     92  53  26 SE8       30.18F
$$

TXZ083>090-098>101-113>116-127>130-139>142-154-155-121800-
WESTERN NORTH TEXAS

CITY           SKY/WX    TMP DP  RH WIND       PRES   REMARKS
WICHITA FALLS  SUNNY     91  63  39 SW14      30.14S HX  92
WF-KICKAPOO    SUNNY     91  58  32 SW9G18    30.15F
VERNON         SUNNY     92  58  31 S18       30.14F HX  91
ABILENE        SUNNY     90  47  22 S17G24    30.18F
BRECKENRIDGE   SUNNY     93  48  21 S13G20    30.17S HAZE
MINERAL WELLS  SUNNY     90  59  35 S9        30.15F
STEPHENVILLE   SUNNY     89  47  23 S12       30.22S
COMANCHE       SUNNY     90  51  26 S8        30.19F
BROWNWOOD      SUNNY     88  54  31 S13       30.19F HAZE
COLEMAN        SUNNY     89  51  26 S14G21    30.19F
BRADY          SUNNY     88  57  35 SE13      30.20S
$$

TXZ143>147-156>162-174-175-121800-
CENTRAL TEXAS

CITY           SKY/WX    TMP DP  RH WIND       PRES   REMARKS
WACO           SUNNY     89  60  37 S7        30.18F
WACO-TSTC      SUNNY     90  59  35 SW6       30.18F
WACO-MCGREGOR  SUNNY     91  61  35 S7        30.19F HX  91
HILLSBORO      SUNNY     89  59  35 S5        30.18F
CORSICANA      SUNNY     90  66  45 S9        30.18F HX  92
MEXIA          SUNNY     87  68  52 SW5       30.18S HX  90
HEARNE         SUNNY     91  73  55 S3        30.18F HX  99
CAMERON        SUNNY     88  64  44 CALM      30.18F
TEMPLE         SUNNY     88  63  42 SE7       30.19F
KILLEEN        NOT AVBL
KILLEEN-SKYLRK SUNNY     90  61  37 SE8       30.19S
FORT HOOD      SUNNY     91  61  36 E10       30.19S HX  91
GATESVILLE     SUNNY     88  61  40 S5        30.21S
HAMILTON       SUNNY     89  56  32 S8G16     30.21S
LAMPASAS       SUNNY     88  61  39 S8        30.19S
$$

TXZ095>097-106>112-122>126-135>138-148>153-164>167-121800-
EAST TEXAS

CITY           SKY/WX    TMP DP  RH WIND       PRES   REMARKS
PARIS          SUNNY     91  66  43 SW5       30.17S HX  94
SULPHUR SPRNGS MOSUNNY   93  63  36 SW12      30.18S HX  94
CLARKSVILLE    CLOUDY    93  67  42 S5        30.16S HX  97
MOUNT PLEASANT SUNNY     91  68  47 W5        30.17F HX  95
GILMER         SUNNY     91  70  49 CALM      30.18F HX  97
MINEOLA        CLOUDY    91  70  49 W3        30.17  HX  97
TYLER          SUNNY     91  70  49 VRB7      30.17F HX  96
LONGVIEW       SUNNY     91  72  53 SW3       30.16S HX  98
MARSHALL         N/A    N/A N/A N/A MISG        N/A
ATHENS         SUNNY     88  70  55 SW5       30.17S HX  92
PALESTINE      SUNNY     87  66  49 SE3       30.20S
JACKSONVILLE   MOSUNNY   91  69  48 S3        30.21S HX  95
HENDERSON      MOSUNNY   91  69  47 CALM      30.18S HX  95
NACOGDOCHES    SUNNY     91  72  52 CALM      30.17F HX  98
LUFKIN         MOSUNNY   93  72  50 VRB6      30.17S HX 101
$$

SUPPLEMENTAL OBSERVATIONS (CENTRAL)

CITY           SKY/WX    TMP DP  RH WIND       PRES   REMARKS
LAKE TEXOMA      N/A     91  43  18 SW13        N/A
CADDO GRASSLND   N/A     93  66  40 S10         N/A  HX  96
PAT MAYSE LAKE   N/A     90  68  48 S3          N/A  HX  93
ATHENS           N/A     93  68  43 S5          N/A  HX  97
LAKE LIMESTONE   N/A     90  73  58 SW5         N/A  HX  98
MCGREGOR         N/A     91  59  33 S7          N/A  HX  90
$$

SUPPLEMENTAL OBSERVATIONS (WEST)

CITY           SKY/WX    TMP DP  RH WIND       PRES   REMARKS
LBJ GRASSLAND    N/A     93  59  31 S7          N/A  HX  92
COMANCHE         N/A     90  55  31 SE12        N/A
HAMBY            N/A     91  46  21 S17G23      N/A
IVIE RESERVOIR   N/A     91  50  24 SE14        N/A
COLORADO BEND    N/A     90  57  33 S8          N/A
$$

SUPPLEMENTAL OBSERVATIONS (EAST)

CITY           SKY/WX    TMP DP  RH WIND       PRES   REMARKS
TEXARKANA        N/A     93  70  46 S3          N/A  HX  99
LINDEN           N/A     93  68  43 SW2         N/A  HX  97
CADDO LAKE       N/A     93  68  43 N3          N/A  HX  97
LUFKIN           N/A     93  79  62 MISG        N/A  HX 110
$$

SUPPLEMENTAL OBSERVATIONS ARE A COLLECTION OF AUTOMATED INSTRUMENTS
THAT ARE MAINTAINED BY A VARIETY OF FEDERAL AND STATE AGENCIES.
CERTAIN ELEMENTS...SUCH AS HUMIDITY VALUES AND SUSTAINED WIND
SPEEDS...MAY BE APPROXIMATED.




USA.gov is the U.S. government's official web portal to all federal, state and local government web resources and services.